Location: Kawakawa
(35.3830°S, 174.0670°E)
Time: 12:01:28
(UTC+13:00)

Vanguard 3 - Visible Passes

Search period start: 08 December 2019 00:00
Search period end: 18 December 2019 00:00
Orbit: 508 x 3263 km, 33.3° (Epoch: 07 December)

Date Brightness Start Highest point End Pass type
(mag) Time Alt. Az. Time Alt. Az. Time Alt. Az.
08 Dec 7.9 00:08:32 10° W 00:15:16 52° WNW 00:15:16 52° WNW visible
08 Dec 9.1 20:35:47 10° NW 20:49:39 48° NNE 20:57:44 10° E visible
08 Dec 7.8 22:51:57 10° WNW 23:02:48 74° N 23:05:46 36° E visible
09 Dec 9.3 01:07:51 10° W 01:10:21 20° W 01:10:21 20° W visible
09 Dec 8.5 21:34:54 10° WNW 21:48:14 65° NNE 21:55:33 10° E visible
09 Dec 7.5 23:51:38 10° W 00:00:45 75° NNW 00:00:45 75° NNW visible
10 Dec 8.1 22:34:42 10° W 22:46:40 77° N 22:51:04 25° E visible
11 Dec 8.8 00:51:09 10° W 00:55:38 30° W 00:55:38 30° W visible
11 Dec 8.7 21:17:20 10° WNW 21:31:54 71° NNE 21:39:53 10° E visible
11 Dec 7.6 23:34:37 10° W 23:44:57 75° N 23:45:53 66° NE visible
12 Dec 8.3 22:17:23 10° W 22:30:28 80° N 22:36:04 19° E visible
13 Dec 8.5 00:34:19 10° W 00:40:37 40° WNW 00:40:37 40° WNW visible
13 Dec 8.9 20:59:45 10° WNW 21:15:28 76° N 21:24:09 10° E visible
13 Dec 7.9 23:17:29 10° W 23:28:50 74° N 23:30:46 52° ENE visible
14 Dec 9.8 01:34:03 10° W 01:35:19 14° W 01:35:19 14° W visible
14 Dec 8.6 22:00:01 10° W 22:14:11 81° N 22:20:52 16° E visible
15 Dec 8.3 00:17:23 10° W 00:25:25 47° WNW 00:25:25 47° WNW visible
15 Dec 9.2 20:42:10 10° WNW 20:58:56 79° N 21:08:22 10° E visible
15 Dec 8.2 23:00:15 10° W 23:12:37 72° NNW 23:15:29 43° ENE visible
16 Dec 9.6 01:17:25 10° W 01:20:02 17° W 01:20:02 17° W visible
16 Dec 8.8 21:42:33 10° W 21:57:48 81° N 22:05:32 13° E visible
17 Dec 8.3 00:00:20 10° W 00:10:05 48° NW 00:10:05 48° NW visible
17 Dec 8.5 22:42:55 10° W 22:56:19 69° NNW 23:00:07 36° NE visible
